Location: Unspecified
(0.0000°N, 0.0000°E)
Time: 13:26:29
(UTC+00:00)

Courier 1B Rocket - Visible Passes

Search period start: 27 July 2016 00:00
Search period end: 06 August 2016 00:00
Orbit: 920 x 1202 km, 28.3° (Epoch: 26 July)

Date Brightness Start Highest point End Pass type
(mag) Time Alt. Az. Time Alt. Az. Time Alt. Az.
27 Jul 7.9 02:03:52 11° NE 02:03:52 11° NE 02:04:08 10° NE visible
27 Jul 7.1 03:50:14 17° NNW 03:51:07 17° NNW 03:55:55 10° NNE visible
28 Jul 7.4 02:52:53 18° N 02:52:53 18° N 02:55:32 10° NNE visible
29 Jul 7.5 03:41:52 11° NNW 03:42:55 12° NNW 03:45:30 10° N visible
30 Jul 7.7 02:44:29 13° N 02:44:29 13° N 02:45:41 10° NNE visible
01 Aug 7.0 19:46:19 10° S 19:47:09 12° S 19:47:09 12° S visible
02 Aug 7.3 20:36:39 10° SSW 20:36:45 10° SSW 20:36:45 10° SSW visible
03 Aug 6.3 19:36:29 10° SSW 19:40:02 21° SSE 19:40:02 21° SSE visible
04 Aug 6.6 18:36:49 10° S 18:39:58 14° SSE 18:43:08 10° SE visible
04 Aug 6.6 20:27:37 10° SW 20:29:49 22° SW 20:29:49 22° SW visible
05 Aug 5.6 19:27:10 10° SW 19:32:43 33° SSE 19:33:17 33° SE visible
